Location: Croydon
(51.3762°N, 0.0982°W)
Time: 04:07:00
(UTC+01:00)

Envisat - Pass Details

Date: 26 February 2019
Orbit: 764 x 766 km, 98.1° (Epoch: 15 October)

Event Time Altitude Azimuth Distance (km) Brightness Sun altitude
Rises 20:11:22 0° 219° (SW) 3,222 6.5 -24.9°
Reaches altitude 10° 20:14:54 10° 245° (WSW) 2,302 6.0 -25.4°
Maximum altitude 20:17:25 14° 275° (W) 2,061 6.1 -25.8°
Drops below altitude 10° 20:19:55 10° 305° (NW) 2,311 6.4 -26.1°
Sets 20:23:30 0° 331° (NNW) 3,244 7.0 -26.7°
